Tracking 25710 objects as of 5-Jul-2022
HD Live streaming from Space Station
objects crossing your sky now

FENGYUN 1C DEB

Track FENGYUN 1C DEB now!
10-day predictions


NORAD ID: 36188
Int'l Code: 1999-025DTM
Perigee: 736.7 km
Apogee: 848.7 km
Inclination: 98.6 °
Period: 100.6 minutes
Semi major axis: 7163 km
RCS: 0.0031 m2 (small)
Launch date: May 10, 1999
Source: People's Republic of China (PRC)
Launch site: Taiyaun Space Center, China (TSC)

Note: This is SATELLITE DEBRIS
aabbcc
Your satellite tracking list
Your tracking list is empty




NASA's NSSDC Master Catalog

Two Line Element Set (TLE):
1 36188U 99025DTM 22179.66531155  .00001857  00000-0  68680-3 0  9996
2 36188  98.6456 251.6804 0078210 134.8521 225.9052 14.31853656698396
Source of the keplerian elements: AFSPC